Location: Passau
(48.5830°N, 13.4830°E)
Time: 21:25:39
(UTC+02:00)

Vanguard 3 - Pass Details

Date: 19 May 2024
Orbit: 509 x 3231 km, 33.3° (Epoch: 16 June)

Event Time Altitude Azimuth Distance (km) Brightness Sun altitude
Rises 18:40:36 0° 189° (S) 4,218 10.8 18.4°
Reaches altitude 10° 18:44:37 10° 168° (SSE) 3,718 10.4 17.8°
Maximum altitude 18:50:08 16° 134° (SE) 3,840 10.2 16.9°
Drops below altitude 10° 18:57:12 10° 103° (ESE) 5,005 10.6 15.7°
Sets 19:04:14 0° 87° (E) 6,556 11.2 14.6°
